TimeCDT,TemperatureF,Dew PointF,Humidity,Sea Level PressureIn,VisibilityMPH,Wind Direction,Wind SpeedMPH,Gust SpeedMPH,PrecipitationIn,Events,Conditions,WindDirDegrees,DateUTC
12:05 AM,35.6,17.6,48,29.86,10.0,Calm,Calm,-,N/A,,Clear,0,2012-10-08 05:05:00
12:25 AM,33.8,19.4,56,29.85,10.0,Calm,Calm,-,N/A,,Clear,0,2012-10-08 05:25:00
12:45 AM,32.0,17.6,55,29.85,10.0,Calm,Calm,-,N/A,,Clear,0,2012-10-08 05:45:00
1:05 AM,28.4,17.6,64,29.85,10.0,Calm,Calm,-,N/A,,Clear,0,2012-10-08 06:05:00
2:05 AM,28.4,17.6,64,29.83,10.0,Calm,Calm,-,N/A,,Clear,0,2012-10-08 07:05:00
2:25 AM,28.4,17.6,64,29.83,10.0,Calm,Calm,-,N/A,,Clear,0,2012-10-08 07:25:00
2:45 AM,28.4,17.6,64,29.82,10.0,Calm,Calm,-,N/A,,Clear,0,2012-10-08 07:45:00
3:05 AM,26.6,17.6,69,29.82,10.0,Calm,Calm,-,N/A,,Clear,0,2012-10-08 08:05:00
3:25 AM,30.2,21.2,69,29.81,10.0,Calm,Calm,-,N/A,,Clear,0,2012-10-08 08:25:00
3:45 AM,26.6,19.4,74,29.80,10.0,Calm,Calm,-,N/A,,Clear,0,2012-10-08 08:45:00
4:05 AM,26.6,19.4,74,29.80,10.0,Calm,Calm,-,N/A,,Clear,0,2012-10-08 09:05:00
4:25 AM,26.6,19.4,74,29.80,10.0,Calm,Calm,-,N/A,,Clear,0,2012-10-08 09:25:00
5:05 AM,28.4,21.2,74,29.78,10.0,Calm,Calm,-,N/A,,Clear,0,2012-10-08 10:05:00
5:25 AM,28.4,21.2,74,29.78,10.0,Calm,Calm,-,N/A,,Clear,0,2012-10-08 10:25:00
5:45 AM,26.6,19.4,74,29.77,10.0,Calm,Calm,-,N/A,,Clear,0,2012-10-08 10:45:00
6:05 AM,28.4,23.0,80,29.76,10.0,Calm,Calm,-,N/A,,Clear,0,2012-10-08 11:05:00
6:25 AM,32.0,23.0,69,29.75,10.0,Calm,Calm,-,N/A,,Clear,0,2012-10-08 11:25:00
6:45 AM,33.8,24.8,70,29.75,10.0,SSE,3.5,-,N/A,,Scattered Clouds,160,2012-10-08 11:45:00
7:05 AM,33.8,23.0,65,29.75,10.0,SSE,3.5,-,N/A,,Scattered Clouds,160,2012-10-08 12:05:00
7:25 AM,33.8,23.0,65,29.75,10.0,Calm,Calm,-,N/A,,Clear,0,2012-10-08 12:25:00
7:45 AM,35.6,24.8,65,29.74,10.0,Calm,Calm,-,N/A,,Scattered Clouds,0,2012-10-08 12:45:00
8:05 AM,35.6,24.8,65,29.74,10.0,South,3.5,-,N/A,,Scattered Clouds,170,2012-10-08 13:05:00
8:25 AM,35.6,24.8,65,29.74,10.0,South,5.8,-,N/A,,Scattered Clouds,170,2012-10-08 13:25:00
8:45 AM,37.4,24.8,60,29.75,10.0,South,6.9,-,N/A,,Mostly Cloudy,180,2012-10-08 13:45:00
9:05 AM,37.4,24.8,60,29.74,10.0,South,8.1,-,N/A,,Mostly Cloudy,170,2012-10-08 14:05:00
9:25 AM,39.2,24.8,56,29.73,10.0,SSE,5.8,-,N/A,,Scattered Clouds,160,2012-10-08 14:25:00
9:45 AM,39.2,24.8,56,29.72,10.0,South,8.1,-,N/A,,Scattered Clouds,180,2012-10-08 14:45:00
10:05 AM,41.0,24.8,53,29.71,10.0,South,9.2,-,N/A,,Scattered Clouds,180,2012-10-08 15:05:00
10:25 AM,42.8,26.6,53,29.71,10.0,South,10.4,-,N/A,,Clear,180,2012-10-08 15:25:00
10:45 AM,46.4,28.4,50,29.70,10.0,South,11.5,-,N/A,,Clear,180,2012-10-08 15:45:00
11:05 AM,46.4,28.4,50,29.69,10.0,SSW,10.4,-,N/A,,Clear,200,2012-10-08 16:05:00
11:25 AM,46.4,26.6,46,29.67,10.0,South,10.4,-,N/A,,Scattered Clouds,180,2012-10-08 16:25:00
11:45 AM,46.4,26.6,46,29.66,10.0,SSE,10.4,-,N/A,,Scattered Clouds,160,2012-10-08 16:45:00
12:05 PM,48.2,28.4,46,29.66,10.0,South,15.0,-,N/A,,Scattered Clouds,180,2012-10-08 17:05:00
12:25 PM,51.8,30.2,44,29.65,10.0,South,15.0,-,N/A,,Scattered Clouds,180,2012-10-08 17:25:00
12:45 PM,51.8,28.4,41,29.64,10.0,South,15.0,-,N/A,,Scattered Clouds,190,2012-10-08 17:45:00
1:05 PM,51.8,28.4,41,29.62,10.0,SSE,10.4,-,N/A,,Clear,160,2012-10-08 18:05:00
1:25 PM,51.8,28.4,41,29.62,10.0,South,16.1,-,N/A,,Clear,180,2012-10-08 18:25:00
1:45 PM,51.8,28.4,41,29.62,10.0,South,12.7,18.4,N/A,,Scattered Clouds,190,2012-10-08 18:45:00
2:05 PM,51.8,35.6,54,29.60,10.0,South,13.8,20.7,N/A,,Scattered Clouds,180,2012-10-08 19:05:00
2:25 PM,51.8,33.8,50,29.58,10.0,SSE,11.5,-,N/A,,Mostly Cloudy,160,2012-10-08 19:25:00
2:45 PM,51.8,33.8,50,29.58,10.0,South,11.5,18.4,N/A,,Scattered Clouds,180,2012-10-08 19:45:00
3:05 PM,51.8,33.8,50,29.58,10.0,SSW,11.5,-,N/A,,Scattered Clouds,200,2012-10-08 20:05:00
3:25 PM,51.8,32.0,47,29.59,10.0,SSW,10.4,-,N/A,,Clear,200,2012-10-08 20:25:00
3:45 PM,51.8,33.8,50,29.58,10.0,SSW,8.1,-,N/A,,Scattered Clouds,200,2012-10-08 20:45:00
4:05 PM,51.8,35.6,54,29.59,10.0,WSW,4.6,-,N/A,,Mostly Cloudy,240,2012-10-08 21:05:00
4:25 PM,51.8,39.2,62,29.58,10.0,SSW,6.9,-,N/A,,Mostly Cloudy,200,2012-10-08 21:25:00
4:45 PM,51.8,39.2,62,29.58,10.0,South,5.8,-,N/A,,Scattered Clouds,190,2012-10-08 21:45:00
5:05 PM,53.6,37.4,54,29.57,10.0,SW,9.2,-,N/A,,Mostly Cloudy,220,2012-10-08 22:05:00
5:25 PM,53.6,35.6,51,29.58,10.0,SW,8.1,-,N/A,,Scattered Clouds,230,2012-10-08 22:25:00
5:45 PM,53.6,35.6,51,29.58,10.0,WSW,6.9,-,N/A,,Clear,240,2012-10-08 22:45:00
6:05 PM,53.6,35.6,51,29.59,10.0,WSW,4.6,-,N/A,,Clear,240,2012-10-08 23:05:00
6:25 PM,53.6,35.6,51,29.60,10.0,WSW,5.8,-,N/A,,Scattered Clouds,250,2012-10-08 23:25:00
6:45 PM,53.6,37.4,54,29.61,10.0,West,8.1,-,N/A,,Clear,260,2012-10-08 23:45:00
7:05 PM,53.6,39.2,58,29.62,10.0,West,12.7,18.4,N/A,,Clear,280,2012-10-09 00:05:00
7:25 PM,53.6,39.2,58,29.64,10.0,WNW,16.1,28.8,N/A,,Clear,290,2012-10-09 00:25:00
8:05 PM,51.8,39.2,62,29.67,10.0,WNW,12.7,21.9,N/A,,Clear,290,2012-10-09 01:05:00
8:25 PM,48.2,37.4,66,29.68,10.0,WNW,12.7,20.7,N/A,,Scattered Clouds,300,2012-10-09 01:25:00
8:45 PM,48.2,37.4,66,29.68,10.0,WNW,9.2,-,N/A,,Clear,290,2012-10-09 01:45:00
9:05 PM,46.4,35.6,66,29.69,10.0,West,5.8,-,N/A,,Clear,280,2012-10-09 02:05:00
9:25 PM,46.4,35.6,66,29.70,10.0,West,6.9,-,N/A,,Clear,280,2012-10-09 02:25:00
9:45 PM,46.4,37.4,71,29.70,10.0,SW,3.5,-,N/A,,Clear,230,2012-10-09 02:45:00
10:05 PM,46.4,37.4,71,29.70,10.0,WSW,4.6,-,N/A,,Clear,240,2012-10-09 03:05:00
10:45 PM,42.8,35.6,76,29.70,10.0,SW,3.5,-,N/A,,Clear,230,2012-10-09 03:45:00
11:05 PM,41.0,33.8,76,29.70,10.0,SW,3.5,-,N/A,,Clear,220,2012-10-09 04:05:00
11:25 PM,39.2,33.8,81,29.70,10.0,SSW,4.6,-,N/A,,Clear,210,2012-10-09 04:25:00